Flag for United Kingdom

Past Weather in Hitchin, England, United Kingdom — Yesterday and Last 2 Weeks

Now
64 °F

Mostly cloudy.


Feels Like: 64 °F
Forecast: 67 / 55 °F
Wind: 16 mph from Southwest

Location: Luton Airport

Current Time: Jul 4, 2020 at 8:22:53 pm

Latest Report: Jul 4, 2020 at 7:50 pm


Visibility: N/A

Pressure: 29.80 "Hg

Humidity: 83%

Dew Point: 59 °F

Location of HitchinLocation

Past Weather in Hitchin — Graph

°F

Hitchin Temperature Yesterday

Maximum temperature yesterday: 66 °F (at 1:50 pm)
Minimum temperature yesterday: 50 °F (at 2:20 am)
Average temperature yesterday: 58 °F

High & Low Weather Summary for the Past Weeks

 TemperatureHumidityPressure
High84 °F (Jun 25, 2:20 pm)100% (Jun 20, 3:20 am)30.27 "Hg (Jun 20, 3:20 am)
Low50 °F (Jun 22, 3:20 am)37% (Jun 24, 4:50 pm)29.59 "Hg (Jun 27, 12:50 pm)
Average62 °F74%29.92 "Hg
* Reported Jun 19 6:20 pm — Jul 4 6:50 pm, Hitchin. Weather by CustomWeather, © 2020

Note: Actual official high and low records may vary slightly from our data, if they occured in-between our weather recording intervals... More about our weather records

Hitchin Weather History for the Previous 24 Hours

Scroll right to see more
 ConditionsComfort  
Time TempWeatherWind HumidityBarometerVisibility
6:50 pm
Sat, Jul 4
64 °FMostly cloudy.15 mph88%29.80 "HgN/A
6:20 pm64 °FMostly cloudy.13 mph88%29.80 "HgN/A
5:50 pm64 °FMostly cloudy.14 mph88%29.80 "HgN/A
5:20 pm64 °FOvercast.14 mph88%29.80 "HgN/A
4:50 pm64 °FOvercast.15 mph88%29.80 "HgN/A
4:20 pm66 °FMostly cloudy.15 mph83%29.80 "HgN/A
3:50 pm66 °FOvercast.16 mph83%29.80 "HgN/A
3:20 pm66 °FMostly cloudy.14 mph83%29.80 "HgN/A
2:50 pm66 °FMostly cloudy.17 mph78%29.80 "HgN/A
2:20 pm66 °FOvercast.14 mph83%29.83 "HgN/A
1:50 pm66 °FMostly cloudy.16 mph83%29.83 "HgN/A
1:20 pm66 °FMostly cloudy.17 mph83%29.83 "HgN/A
12:50 pm64 °FOvercast.16 mph83%29.83 "HgN/A
12:20 pm64 °FMostly cloudy.17 mph83%29.83 "HgN/A
11:50 am64 °FMostly cloudy.18 mph83%29.83 "HgN/A
11:20 am64 °FPartly sunny.18 mph83%29.83 "HgN/A
10:50 am64 °FMostly cloudy.18 mph83%29.83 "HgN/A
10:20 am64 °FOvercast.15 mph83%29.80 "HgN/A
9:50 am64 °FMostly cloudy.15 mph88%29.80 "HgN/A
9:20 am63 °FMostly cloudy.16 mph88%29.80 "HgN/A
8:50 am63 °FMostly cloudy.13 mph88%29.80 "HgN/A
8:20 am61 °FMostly cloudy.13 mph94%29.83 "HgN/A
7:50 am61 °FLow clouds.13 mph94%29.83 "HgN/A
7:20 am59 °FMostly cloudy.13 mph100%29.83 "Hg4 mi
6:50 am59 °FLow clouds.14 mph94%29.83 "HgN/A
6:20 am59 °FLow clouds.15 mph94%29.83 "HgN/A
5:50 am59 °FLow clouds.15 mph94%29.83 "Hg6 mi
5:20 am57 °FLow clouds.15 mph100%29.83 "HgN/A
4:50 am57 °FMostly cloudy.16 mph100%29.83 "Hg4 mi
4:20 am57 °FFog.16 mph100%29.83 "Hg3 mi
3:50 am57 °FFog.15 mph100%29.83 "Hg3 mi
3:20 am57 °FLow clouds.14 mph100%29.86 "Hg6 mi
2:50 am57 °FDrizzle. Low clouds.16 mph94%29.86 "Hg3 mi
2:20 am57 °FLow clouds.15 mph94%29.86 "HgN/A
1:50 am57 °FLight rain. Low clouds.17 mph94%29.86 "Hg6 mi
1:20 am57 °FLow clouds.17 mph94%29.86 "HgN/A
12:50 am57 °FLow clouds.16 mph94%29.89 "HgN/A
12:20 am57 °FLow clouds.17 mph94%29.89 "HgN/A
11:50 pm
Fri, Jul 3
57 °FLow clouds.17 mph94%29.89 "HgN/A
11:20 pm57 °FLow clouds.17 mph88%29.89 "HgN/A
10:50 pm57 °FLow clouds.16 mph88%29.92 "HgN/A
10:20 pm55 °FLow clouds.16 mph94%29.92 "HgN/A
9:50 pm55 °FMostly cloudy.16 mph94%29.92 "HgN/A
9:20 pm55 °FMostly cloudy.15 mph94%29.92 "HgN/A
8:50 pm55 °FLight rain. Low clouds.16 mph94%29.92 "HgN/A
8:20 pm57 °FLight rain. Partly sunny.15 mph88%29.92 "HgN/A
Weather by CustomWeather, © 2020

See weather overview